Regional Weather Roundup
Issued by NWS

Home | Current Version | Previous Version | Graphics & Text | Print | Product List | Glossary On
Versions: 1 2 3 4 5 6 7 8 9 10 11 12 13 14 15 16 17 18 19 20 21 22 23 24 25 26 27 28 29 30 31 32 33 34 35 36 37 38 39 40 41 42 43 44 45 46 47 48 49 50
000
ASUS43 KBIS 271801
RWRND

NORTH DAKOTA REGIONAL WEATHER ROUNDUP
NATIONAL WEATHER SERVICE BISMARCK ND
100 PM CDT FRI MAR 27 2015

NOTE: "FAIR" INDICATES FEW OR NO CLOUDS BELOW 12,000 FEET WITH NO
SIGNIFICANT WEATHER AND/OR OBSTRUCTIONS TO VISIBILITY.


NDZ001>003-009>011-017-271900-
NORTHWEST NORTH DAKOTA

CITY           SKY/WX    TMP DP  RH WIND       PRES   REMARKS
WILLISTON      CLOUDY    55  34  45 NW12      29.92S
6HR MIN TEMP:  35; 6HR MAX TEMP:  55;

MINOT          PTSUNNY   38  30  73 S13       29.89F
MINOT AFB      PTSUNNY   37  36  97 SW9       29.89F
$$

NDZ018>021-031>035-040>046-271900-
SOUTHWEST NORTH DAKOTA

CITY           SKY/WX    TMP DP  RH WIND       PRES   REMARKS
BISMARCK       CLOUDY    33  28  81 S13       29.99F
6HR MIN TEMP:  25; 6HR MAX TEMP:  34; 6HR PCP:  0.02;

DICKINSON      SUNNY     61  36  39 W18       29.88F
GARRISON         N/A     39  34  82 SW15      29.91F
6HR MIN TEMP:  26; 6HR MAX TEMP:  39; 6HR PCP:  0.05;

HETTINGER ARPT MOSUNNY   60  37  42 W22       29.93F
$$

NDZ004>008-012>016-024-026-027-054-271900-
NORTHEAST NORTH DAKOTA

CITY           SKY/WX    TMP DP  RH WIND       PRES   REMARKS
GRAND FORKS    CLOUDY    31  13  47 S12       30.14F
GRND FRKS AFB  CLOUDY    30  16  55 S12G21    30.13F
DEVILS LAKE    CLOUDY    27  23  86 S16       30.03F VSB 1   WCI  14
$$

NDZ022-023-025-028>030-036>039-047>053-271900-
SOUTHEAST NORTH DAKOTA

CITY           SKY/WX    TMP DP  RH WIND       PRES   REMARKS
FARGO          PTSUNNY   34   9  35 S14       30.16F
6HR MIN TEMP:  11; 6HR MAX TEMP:  34;

JAMESTOWN      LGT SNOW  27  23  85 S15       30.07S FOG     WCI  15
$$




USA.gov is the U.S. government's official web portal to all federal, state and local government web resources and services.